TimeEDT,TemperatureF,Dew PointF,Humidity,Sea Level PressureIn,VisibilityMPH,Wind Direction,Wind SpeedMPH,Gust SpeedMPH,PrecipitationIn,Events,Conditions,WindDirDegrees,DateUTC
12:15 AM,28.9,17.4,62,30.25,10.0,WNW,11.5,18.4,N/A,,Overcast,290,2013-03-14 04:15:00
12:35 AM,28.8,17.8,64,30.25,10.0,WNW,10.4,-,N/A,,Overcast,300,2013-03-14 04:35:00
12:55 AM,28.4,18.1,65,30.25,10.0,West,8.1,-,N/A,,Overcast,280,2013-03-14 04:55:00
1:15 AM,28.0,16.9,63,30.26,10.0,WNW,12.7,18.4,N/A,,Mostly Cloudy,300,2013-03-14 05:15:00
1:35 AM,27.5,17.1,65,30.26,10.0,WNW,5.8,-,N/A,,Mostly Cloudy,300,2013-03-14 05:35:00
2:15 AM,27.3,16.7,64,30.27,10.0,WNW,11.5,17.3,N/A,,Scattered Clouds,300,2013-03-14 06:15:00
2:35 AM,27.1,16.5,64,30.27,10.0,WNW,11.5,16.1,N/A,,Clear,290,2013-03-14 06:35:00
2:55 AM,27.0,16.2,64,30.27,10.0,WNW,9.2,-,N/A,,Clear,290,2013-03-14 06:55:00
3:15 AM,26.6,16.2,65,30.27,10.0,WNW,9.2,-,N/A,,Clear,290,2013-03-14 07:15:00
3:35 AM,26.4,16.5,66,30.27,10.0,WNW,8.1,-,N/A,,Clear,290,2013-03-14 07:35:00
3:55 AM,25.9,16.7,68,30.27,10.0,WNW,8.1,-,N/A,,Clear,290,2013-03-14 07:55:00
4:15 AM,25.7,16.5,68,30.26,10.0,WNW,6.9,-,N/A,,Clear,290,2013-03-14 08:15:00
4:35 AM,25.3,16.5,69,30.26,10.0,West,6.9,-,N/A,,Clear,280,2013-03-14 08:35:00
4:55 AM,24.6,16.7,72,30.27,10.0,West,5.8,-,N/A,,Clear,270,2013-03-14 08:55:00
5:15 AM,24.3,16.5,72,30.27,10.0,West,4.6,-,N/A,,Clear,260,2013-03-14 09:15:00
5:35 AM,23.4,16.7,76,30.27,10.0,West,5.8,-,N/A,,Clear,260,2013-03-14 09:35:00
5:55 AM,23.2,16.5,76,30.29,10.0,West,4.6,-,N/A,,Clear,260,2013-03-14 09:55:00
6:15 AM,22.1,16.2,78,30.29,10.0,WSW,4.6,-,N/A,,Clear,250,2013-03-14 10:15:00
6:35 AM,21.7,16.3,80,30.30,10.0,WSW,4.6,-,N/A,,Clear,240,2013-03-14 10:35:00
6:55 AM,22.6,16.7,78,30.30,10.0,SW,4.6,-,N/A,,Clear,230,2013-03-14 10:55:00
7:15 AM,22.5,16.7,79,30.30,10.0,WSW,4.6,-,N/A,,Clear,240,2013-03-14 11:15:00
7:35 AM,21.7,16.7,81,30.31,10.0,SW,4.6,-,N/A,,Clear,230,2013-03-14 11:35:00
7:55 AM,22.6,16.9,79,30.31,10.0,SW,4.6,-,N/A,,Clear,220,2013-03-14 11:55:00
8:15 AM,23.4,17.4,78,30.31,10.0,SW,4.6,-,N/A,,Clear,230,2013-03-14 12:15:00
8:35 AM,23.9,18.1,79,30.31,10.0,WSW,4.6,-,N/A,,Clear,240,2013-03-14 12:35:00
8:55 AM,25.3,18.7,76,30.31,10.0,WSW,5.8,-,N/A,,Clear,240,2013-03-14 12:55:00
9:15 AM,26.4,18.7,73,30.32,10.0,West,9.2,-,N/A,,Clear,260,2013-03-14 13:15:00
9:35 AM,27.5,17.8,67,30.32,10.0,West,8.1,-,N/A,,Clear,270,2013-03-14 13:35:00
9:55 AM,28.8,17.6,63,30.33,10.0,West,8.1,-,N/A,,Clear,280,2013-03-14 13:55:00
10:15 AM,30.0,17.2,59,30.33,10.0,West,8.1,-,N/A,,Clear,260,2013-03-14 14:15:00
10:35 AM,30.9,16.9,56,30.33,10.0,West,5.8,-,N/A,,Clear,280,2013-03-14 14:35:00
10:55 AM,32.0,16.7,53,30.33,10.0,West,8.1,-,N/A,,Clear,280,2013-03-14 14:55:00
11:15 AM,32.0,14.5,49,30.32,10.0,West,10.4,-,N/A,,Clear,270,2013-03-14 15:15:00
11:35 AM,33.3,15.1,47,30.31,10.0,WSW,6.9,10.4,N/A,,Clear,250,2013-03-14 15:35:00
11:55 AM,34.5,15.6,46,30.31,10.0,SW,8.1,-,N/A,,Clear,230,2013-03-14 15:55:00
12:15 PM,34.7,14.2,43,30.31,10.0,West,8.1,17.3,N/A,,Clear,260,2013-03-14 16:15:00
12:35 PM,35.8,14.9,43,30.30,10.0,WSW,11.5,-,N/A,,Clear,240,2013-03-14 16:35:00
12:55 PM,36.7,13.6,39,30.29,10.0,WSW,10.4,19.6,N/A,,Clear,240,2013-03-14 16:55:00
1:15 PM,37.4,12.7,36,30.29,10.0,WSW,8.1,16.1,N/A,,Clear,250,2013-03-14 17:15:00
1:35 PM,37.6,11.8,35,30.27,10.0,West,8.1,18.4,N/A,,Clear,270,2013-03-14 17:35:00
1:55 PM,38.7,12.7,35,30.26,10.0,WSW,17.3,20.7,N/A,,Clear,250,2013-03-14 17:55:00
2:15 PM,39.6,12.9,34,30.25,10.0,WNW,5.8,9.2,N/A,,Clear,300,2013-03-14 18:15:00
2:35 PM,40.3,14.0,34,30.24,10.0,WSW,12.7,17.3,N/A,,Clear,240,2013-03-14 18:35:00
2:55 PM,41.2,14.4,34,30.22,10.0,WSW,11.5,-,N/A,,Clear,240,2013-03-14 18:55:00
3:15 PM,41.4,13.1,32,30.22,10.0,West,12.7,21.9,N/A,,Clear,270,2013-03-14 19:15:00
3:35 PM,42.1,12.0,29,30.20,10.0,West,19.6,23.0,N/A,,Clear,270,2013-03-14 19:35:00
3:55 PM,42.3,10.8,28,30.20,10.0,WNW,10.4,-,N/A,,Clear,300,2013-03-14 19:55:00
4:15 PM,43.0,12.4,29,30.19,10.0,WNW,9.2,19.6,N/A,,Clear,290,2013-03-14 20:15:00
4:35 PM,43.3,12.2,28,30.19,10.0,West,15.0,21.9,N/A,,Clear,280,2013-03-14 20:35:00
4:55 PM,43.0,10.6,27,30.19,10.0,WNW,11.5,20.7,N/A,,Clear,300,2013-03-14 20:55:00
5:15 PM,42.8,11.3,28,30.19,10.0,WNW,10.4,15.0,N/A,,Clear,290,2013-03-14 21:15:00
5:35 PM,42.8,11.5,28,30.19,10.0,West,12.7,23.0,N/A,,Clear,280,2013-03-14 21:35:00
5:55 PM,42.8,12.0,29,30.19,10.0,WSW,9.2,18.4,N/A,,Clear,250,2013-03-14 21:55:00
6:15 PM,42.3,11.5,29,30.19,10.0,West,13.8,20.7,N/A,,Clear,280,2013-03-14 22:15:00
6:35 PM,41.9,12.0,30,30.19,10.0,West,10.4,-,N/A,,Clear,280,2013-03-14 22:35:00
6:55 PM,41.2,12.4,31,30.19,10.0,WNW,10.4,-,N/A,,Clear,290,2013-03-14 22:55:00
7:15 PM,40.1,13.1,33,30.19,10.0,West,10.4,-,N/A,,Clear,270,2013-03-14 23:15:00
7:35 PM,38.5,13.6,36,30.19,10.0,West,8.1,-,N/A,,Clear,270,2013-03-14 23:35:00
7:55 PM,37.4,14.5,39,30.19,10.0,West,6.9,-,N/A,,Clear,270,2013-03-14 23:55:00
8:15 PM,36.1,16.3,45,30.19,10.0,West,4.6,-,N/A,,Clear,270,2013-03-15 00:15:00
8:35 PM,34.5,15.6,46,30.19,10.0,West,3.5,-,N/A,,Clear,260,2013-03-15 00:35:00
9:15 PM,33.1,16.7,51,30.19,10.0,Calm,Calm,-,N/A,,Clear,0,2013-03-15 01:15:00
9:35 PM,32.9,16.5,51,30.19,10.0,Calm,Calm,-,N/A,,Clear,0,2013-03-15 01:35:00
9:55 PM,32.0,16.2,52,30.19,10.0,Calm,Calm,-,N/A,,Clear,0,2013-03-15 01:55:00
10:15 PM,31.8,17.4,55,30.19,10.0,Calm,Calm,-,N/A,,Clear,0,2013-03-15 02:15:00
10:35 PM,29.8,19.0,64,30.19,10.0,Calm,Calm,-,N/A,,Clear,0,2013-03-15 02:35:00
10:55 PM,28.8,19.4,68,30.20,10.0,Calm,Calm,-,N/A,,Clear,0,2013-03-15 02:55:00
11:15 PM,28.9,18.7,66,30.19,10.0,Calm,Calm,-,N/A,,Clear,0,2013-03-15 03:15:00
11:35 PM,27.5,18.9,70,30.19,10.0,Calm,Calm,-,N/A,,Clear,0,2013-03-15 03:35:00
11:55 PM,27.7,18.0,67,30.17,10.0,Calm,Calm,-,N/A,,Clear,0,2013-03-15 03:55:00